When you browse on this site, cookies collect data to enhance your experience and personalize the content and advertising you see.
Visit our Privacy Policy to learn more. By continuing to use the site, you agree to this use of cookies and data.
  • In Hungary
  • List of Countries
  • For 7 days
  • Water Temperature
  • Satellite Maps
  • Weather Map
  • News
  • Weather Widgets
  • user-avatar
    Login

    Hourly Weather Comiso

    Today, 22 January, Tuesday

    Time Temperature Precipitation Wind Pressure Humidity
    00:00 +8°C° 0 mm 1 mps 722 mmHg 90%
    01:00 +8°C° 0 mm 1 mps 722 mmHg 90%
    02:00 +8°C° 0 mm 1 mps 722 mmHg 90%
    03:00 +8°C° 0 mm 1 mps 721 mmHg 90%
    04:00 +8°C° 0 mm 1 mps 721 mmHg 90%
    05:00 +6°C° 0.1 mm 2 mps 721 mmHg 91%
    06:00 +6°C° 0.1 mm 2 mps 721 mmHg 92%
    07:00 +5°C° 0.1 mm 3 mps 721 mmHg 93%
    08:00 +7°C° 0 mm 4 mps 722 mmHg 88%
    09:00 +8°C° 0 mm 5 mps 722 mmHg 84%
    10:00 +9°C° 0 mm 7 mps 723 mmHg 80%
    11:00 +10°C° 0 mm 7 mps 723 mmHg 75%
    12:00 +10°C° 0 mm 8 mps 723 mmHg 69%
    13:00 +11°C° 0 mm 8 mps 723 mmHg 64%
    14:00 +10°C° 0 mm 8 mps 722 mmHg 64%
    15:00 +10°C° 0 mm 8 mps 722 mmHg 63%
    16:00 +9°C° 0 mm 8 mps 722 mmHg 63%
    17:00 +8°C° 0 mm 7 mps 722 mmHg 68%
    18:00 +7°C° 0 mm 6 mps 722 mmHg 73%
    19:00 +5°C° 0 mm 6 mps 722 mmHg 77%
    20:00 +5°C° 0 mm 5 mps 722 mmHg 79%
    21:00 +5°C° 0 mm 4 mps 722 mmHg 81%
    22:00 +4°C° 0 mm 4 mps 722 mmHg 83%
    23:00 +4°C° 0 mm 4 mps 721 mmHg 82%

    Tomorrow, 23 January, Wednesday

    Time Temperature Precipitation Wind Pressure Humidity
    00:00 +4°C° 0 mm 3 mps 721 mmHg 81%
    01:00 +4°C° 0 mm 3 mps 721 mmHg 80%
    02:00 +4°C° 0 mm 3 mps 720 mmHg 80%
    03:00 +4°C° 0 mm 3 mps 720 mmHg 80%
    04:00 +5°C° 0 mm 2 mps 719 mmHg 79%
    05:00 +4°C° 0 mm 2 mps 719 mmHg 80%
    06:00 +4°C° 0 mm 2 mps 719 mmHg 81%
    07:00 +3°C° 0 mm 2 mps 718 mmHg 82%
    08:00 +5°C° 0 mm 2 mps 718 mmHg 75%
    09:00 +7°C° 0 mm 2 mps 718 mmHg 68%
    10:00 +9°C° 0 mm 2 mps 718 mmHg 61%
    11:00 +9°C° 0 mm 3 mps 718 mmHg 60%
    12:00 +10°C° 0 mm 4 mps 717 mmHg 59%
    13:00 +11°C° 0 mm 4 mps 717 mmHg 58%
    14:00 +9°C° 0.1 mm 5 mps 716 mmHg 62%
    15:00 +9°C° 0.1 mm 5 mps 716 mmHg 65%
    16:00 +8°C° 0.1 mm 5 mps 715 mmHg 68%
    17:00 +7°C° 0 mm 4 mps 715 mmHg 72%
    18:00 +6°C° 0 mm 4 mps 715 mmHg 77%
    19:00 +5°C° 0 mm 3 mps 715 mmHg 81%
    20:00 +5°C° 0.1 mm 2 mps 714 mmHg 81%
    21:00 +5°C° 0.1 mm 2 mps 714 mmHg 81%
    22:00 +5°C° 0.1 mm 2 mps 714 mmHg 81%
    23:00 +5°C° 0.1 mm 2 mps 713 mmHg 82%

    Day after tomorrow, 24 January, Thursday

    Time Temperature Precipitation Wind Pressure Humidity
    00:00 +4°C° 0.1 mm 3 mps 712 mmHg 82%
    01:00 +4°C° 0.1 mm 3 mps 711 mmHg 83%
    02:00 +5°C° 0.7 mm 4 mps 711 mmHg 83%
    03:00 +5°C° 0.7 mm 4 mps 710 mmHg 84%
    04:00 +5°C° 0.7 mm 5 mps 710 mmHg 84%
    05:00 +5°C° 0.6 mm 5 mps 709 mmHg 85%
    06:00 +6°C° 0.6 mm 4 mps 709 mmHg 87%
    07:00 +6°C° 0.6 mm 4 mps 709 mmHg 88%
    08:00 +6°C° 0 mm 4 mps 709 mmHg 81%
    09:00 +7°C° 0 mm 4 mps 709 mmHg 73%
    10:00 +8°C° 0 mm 4 mps 709 mmHg 66%
    11:00 +8°C° 0.4 mm 4 mps 709 mmHg 67%
    12:00 +8°C° 0.4 mm 4 mps 709 mmHg 67%
    13:00 +9°C° 0.4 mm 3 mps 709 mmHg 68%
    14:00 +6°C° 2.8 mm 4 mps 708 mmHg 74%
    15:00 +5°C° 2.8 mm 5 mps 708 mmHg 79%
    16:00 +3°C° 2.8 mm 5 mps 708 mmHg 85%
    17:00 +3°C° 0.5 mm 5 mps 708 mmHg 84%
    18:00 +3°C° 0.5 mm 5 mps 708 mmHg 83%
    19:00 +4°C° 0.5 mm 4 mps 708 mmHg 82%
    20:00 +3°C° 0.2 mm 5 mps 708 mmHg 80%
    21:00 +3°C° 0.2 mm 5 mps 709 mmHg 77%
    22:00 +3°C° 0.2 mm 6 mps 709 mmHg 75%
    23:00 +3°C° 0.2 mm 6 mps 708 mmHg 75%

    25 January, Friday

    Time Temperature Precipitation Wind Pressure Humidity
    00:00 +3°C° 0.2 mm 6 mps 708 mmHg 75%
    01:00 +3°C° 0.2 mm 6 mps 708 mmHg 75%
    02:00 +2°C° 1.6 mm 6 mps 707 mmHg 80%
    03:00 +2°C° 1.6 mm 5 mps 707 mmHg 86%
    04:00 +2°C° 1.6 mm 5 mps 707 mmHg 92%
    05:00 +2°C° 0.3 mm 5 mps 708 mmHg 90%
    06:00 +2°C° 0.3 mm 5 mps 708 mmHg 89%
    07:00 +3°C° 0.3 mm 5 mps 709 mmHg 87%
    08:00 +4°C° 0 mm 6 mps 709 mmHg 84%
    09:00 +5°C° 0 mm 8 mps 710 mmHg 80%
    10:00 +6°C° 0 mm 9 mps 711 mmHg 76%
    11:00 +7°C° 0 mm 9 mps 712 mmHg 71%
    12:00 +8°C° 0 mm 9 mps 712 mmHg 67%
    13:00 +10°C° 0 mm 9 mps 713 mmHg 63%
    14:00 +9°C° 0 mm 8 mps 713 mmHg 64%
    15:00 +9°C° 0 mm 7 mps 714 mmHg 66%
    16:00 +9°C° 0 mm 6 mps 714 mmHg 68%
    17:00 +7°C° 0 mm 6 mps 715 mmHg 72%
    18:00 +6°C° 0 mm 5 mps 716 mmHg 77%
    19:00 +5°C° 0 mm 4 mps 716 mmHg 82%
    20:00 +5°C° 0 mm 4 mps 717 mmHg 83%
    21:00 +5°C° 0 mm 4 mps 717 mmHg 85%
    22:00 +4°C° 0 mm 3 mps 718 mmHg 86%
    23:00 +4°C° 0 mm 3 mps 718 mmHg 86%

    26 January, Saturday

    Time Temperature Precipitation Wind Pressure Humidity
    00:00 +4°C° 0 mm 3 mps 718 mmHg 87%
    01:00 +3°C° 0 mm 3 mps 718 mmHg 87%
    02:00 +3°C° 0 mm 3 mps 718 mmHg 87%
    03:00 +3°C° 0 mm 3 mps 718 mmHg 88%
    04:00 +3°C° 0 mm 3 mps 718 mmHg 88%
    05:00 +3°C° 0 mm 3 mps 719 mmHg 88%
    06:00 +3°C° 0 mm 3 mps 719 mmHg 88%
    07:00 +2°C° 0 mm 3 mps 719 mmHg 88%
    08:00 +4°C° 0 mm 3 mps 720 mmHg 81%
    09:00 +7°C° 0 mm 3 mps 721 mmHg 74%
    10:00 +8°C° 0 mm 4 mps 721 mmHg 67%
    11:00 +8°C° 0 mm 4 mps 721 mmHg 62%
    12:00 +10°C° 0 mm 4 mps 721 mmHg 56%
    13:00 +11°C° 0 mm 4 mps 722 mmHg 50%
    14:00 +11°C° 0 mm 4 mps 722 mmHg 52%
    15:00 +10°C° 0 mm 4 mps 722 mmHg 54%
    16:00 +10°C° 0 mm 4 mps 722 mmHg 56%
    17:00 +8°C° 0 mm 3 mps 722 mmHg 62%
    18:00 +5°C° 0 mm 3 mps 722 mmHg 68%
    19:00 +5°C° 0 mm 2 mps 723 mmHg 74%
    20:00 +4°C° 0 mm 2 mps 723 mmHg 76%
    21:00 +4°C° 0 mm 2 mps 723 mmHg 78%
    22:00 +3°C° 0 mm 2 mps 724 mmHg 80%
    23:00 +3°C° 0 mm 2 mps 724 mmHg 81%

    27 January, Sunday

    Time Temperature Precipitation Wind Pressure Humidity
    00:00 +3°C° 0 mm 2 mps 724 mmHg 81%
    01:00 +3°C° 0 mm 2 mps 723 mmHg 82%
    02:00 +2°C° 0 mm 2 mps 723 mmHg 82%
    03:00 +2°C° 0 mm 2 mps 723 mmHg 82%
    04:00 +2°C° 0 mm 2 mps 723 mmHg 82%
    05:00 +2°C° 0 mm 2 mps 723 mmHg 83%
    06:00 +2°C° 0 mm 2 mps 723 mmHg 83%
    07:00 +2°C° 0 mm 2 mps 723 mmHg 83%
    08:00 +4°C° 0 mm 2 mps 723 mmHg 75%
    09:00 +5°C° 0 mm 3 mps 724 mmHg 66%
    10:00 +8°C° 0 mm 3 mps 724 mmHg 58%
    11:00 +8°C° 0 mm 4 mps 724 mmHg 60%
    12:00 +9°C° 0 mm 5 mps 723 mmHg 63%
    13:00 +10°C° 0 mm 6 mps 723 mmHg 66%
    14:00 +10°C° 0 mm 6 mps 723 mmHg 71%
    15:00 +10°C° 0 mm 6 mps 723 mmHg 76%
    16:00 +9°C° 0 mm 7 mps 722 mmHg 82%
    17:00 +9°C° 0.1 mm 6 mps 722 mmHg 84%
    18:00 +8°C° 0.1 mm 6 mps 722 mmHg 86%
    19:00 +7°C° 0.1 mm 5 mps 722 mmHg 88%
    20:00 +7°C° 0 mm 5 mps 722 mmHg 87%
    21:00 +7°C° 0 mm 4 mps 722 mmHg 85%
    22:00 +7°C° 0 mm 4 mps 722 mmHg 84%
    23:00 +7°C° 0 mm 4 mps 722 mmHg 84%
    Show more